Location: Seattle
(47.6064°N, 122.3308°W)
Time: 05:11:26
(UTC-08:00)

N. Korean satellite - Pass Details

Date: 05 December 2022
Orbit: 407 x 441 km, 97.3° (Epoch: 05 February)

Event Time Altitude Azimuth Distance (km) Brightness Sun altitude
Rises 17:44:05 0° 213° (SSW) 2,460 11.0 -13.8°
Reaches altitude 10° 17:47:09 10° 244° (WSW) 1,608 10.6 -14.3°
Maximum altitude 17:48:40 12° 271° (W) 1,475 10.2 -14.5°
Drops below altitude 10° 17:50:11 10° 297° (WNW) 1,625 9.9 -14.8°
Sets 17:53:19 0° 328° (NNW) 2,518 10.4 -15.3°
